Date,TemperatureHighF,TemperatureAvgF,TemperatureLowF,DewpointHighF,DewpointAvgF,DewpointLowF,HumidityHigh,HumidityAvg,HumidityLow,PressureMaxIn,PressureMinIn,WindSpeedMaxMPH,WindSpeedAvgMPH,GustSpeedMaxMPH,PrecipitationSumIn
2013-1-1,35.1,22.2,9.3,16.0,7.7,-4.9,78,55,36,30.19,30.04,29,7,29,0.00
2013-1-2,29.8,20.8,7.9,1.1,-5.0,-16.7,46,32,23,30.25,30.16,25,9,25,0.00
2013-1-3,40.3,26.8,13.5,9.2,1.1,-9.8,35,32,27,30.25,30.13,20,8,20,0.00
2013-1-4,45.0,30.2,18.3,14.6,6.2,-0.2,48,36,21,30.13,30.07,20,6,20,0.00
2013-1-5,38.5,22.5,12.6,11.3,4.7,-3.3,71,47,29,30.22,30.10,16,6,16,0.00
2013-1-6,44.6,30.5,19.8,13.3,8.6,3.7,64,41,25,30.10,29.89,14,5,14,0.00
2013-1-7,42.6,29.8,15.4,16.8,10.4,4.3,70,44,30,29.95,29.75,15,5,15,0.00
2013-1-8,41.7,33.1,21.2,17.0,10.7,5.2,56,39,29,30.04,29.78,27,6,27,0.00
2013-1-9,43.9,35.1,22.5,20.0,16.5,10.7,77,48,33,30.04,29.78,26,8,26,0.00
2013-1-10,48.9,27.5,10.8,25.4,15.9,7.7,96,65,31,29.78,29.60,20,6,20,0.00
2013-1-11,10.6,3.7,0.7,7.6,1.0,-2.0,88,88,88,29.95,29.63,27,12,27,0.00
2013-1-12,9.9,2.7,-4.9,6.5,-0.0,-7.5,88,88,88,29.98,29.92,13,4,14,0.00
2013-1-13,22.8,3.1,-6.7,9.0,-7.8,-22.9,88,63,41,30.04,29.98,14,5,14,0.00
2013-1-14,18.5,5.2,-4.2,9.6,-14.4,-20.7,81,39,34,30.01,29.92,16,5,16,0.00
2013-1-15,40.6,21.6,9.1,21.7,13.1,5.0,91,71,41,30.13,29.95,9,3,9,0.00
2013-1-16,43.3,29.5,16.3,20.1,11.4,6.7,80,49,29,30.31,30.13,19,5,19,0.00
2013-1-17,52.2,33.0,23.5,18.6,9.4,4.0,49,38,22,30.34,30.10,12,6,12,0.00
2013-1-18,59.2,41.2,25.3,16.1,6.9,0.8,40,25,15,30.10,29.98,29,8,29,0.00
2013-1-19,54.0,32.7,22.3,15.5,6.8,1.2,47,34,16,30.22,30.07,17,5,17,0.00
2013-1-20,39.9,21.9,13.8,16.7,12.0,3.5,93,68,28,30.31,30.13,17,4,17,0.00
2013-1-21,50.7,31.7,19.2,16.1,9.9,1.3,66,41,24,30.19,30.01,10,4,10,0.00
2013-1-22,53.2,33.9,21.2,16.8,5.6,-1.7,37,31,16,30.10,30.04,10,5,10,0.00
2013-1-23,48.4,38.3,27.1,17.1,9.2,2.8,36,30,22,30.13,29.98,23,5,23,0.00
2013-1-24,49.6,38.3,22.3,18.6,13.4,8.1,59,37,22,30.10,29.92,38,6,38,0.00
2013-1-25,49.5,36.6,25.0,23.0,14.8,5.6,47,41,34,30.10,29.95,24,8,24,0.00
2013-1-26,52.3,37.6,31.5,24.8,19.6,16.2,60,48,35,29.98,29.78,20,4,20,0.00
2013-1-27,37.8,27.0,21.4,26.0,20.6,6.1,93,78,45,29.83,29.78,19,7,19,0.00
2013-1-28,33.6,19.5,10.8,13.1,4.7,-4.2,74,52,41,29.83,29.75,15,6,15,0.00
2013-1-29,19.9,12.6,-5.1,12.5,0.8,-14.1,81,60,39,30.01,29.72,22,6,22,0.00
2013-1-30,32.9,21.8,7.5,22.9,11.5,-3.5,94,65,47,29.95,29.80,25,6,25,0.00
2013-1-31,34.5,22.6,15.1,22.6,15.1,9.2,93,74,51,30.07,29.95,22,5,22,0.00